| time (UTC) | temp F | wind direction | speed knots | gust knots | rain 1hr in | rain 24hr in | rain mn in | humidity % | barometer mb |
| 20260502214424 | 60 | 135 | 3.5 | 13.9 | 0.00 | 0.00 | 0.00 | 84 | 1014.4 |
| 20260502213923 | 59 | 148 | 11.3 | 13.9 | 0.00 | 0.00 | 0.00 | 85 | 1014.6 |
| 20260502213422 | 59 | 66 | 6.1 | 8.7 | 0.00 | 0.00 | 0.00 | 85 | 1013.9 |
| 20260502212921 | 59 | 51 | 6.1 | 8.7 | 0.00 | 0.00 | 0.00 | 85 | 1013.9 |
| 20260502212420 | 59 | 48 | 5.2 | 7.8 | 0.00 | 0.00 | 0.00 | 84 | 1013.9 |
| 20260502211920 | 59 | 54 | 3.5 | 7.8 | 0.00 | 0.00 | 0.00 | 84 | 1013.9 |
| 20260502210919 | 58 | 48 | 5.2 | 7.8 | 0.00 | 0.00 | 0.00 | 83 | 1013.8 |
| 20260502210419 | 58 | 30 | 4.3 | 5.2 | 0.00 | 0.00 | 0.00 | 83 | 1013.9 |
| 20260502205920 | 58 | 15 | 4.3 | 5.2 | 0.00 | 0.00 | 0.00 | 83 | 1013.8 |
| 20260502205419 | 58 | 13 | 4.3 | 4.3 | 0.00 | 0.00 | 0.00 | 83 | 1013.8 |
| 20260502204921 | 58 | 13 | 3.5 | 5.2 | 0.00 | 0.00 | 0.00 | 83 | 1013.7 |
| 20260502203918 | 58 | 8 | 4.3 | 5.2 | 0.00 | 0.00 | 0.00 | 83 | 1013.7 |
| 20260502203418 | 58 | 8 | 4.3 | 5.2 | 0.00 | 0.00 | 0.00 | 82 | 1013.9 |
| 20260502201418 | 59 | 354 | 4.3 | 5.2 | 0.00 | 0.00 | 0.00 | 82 | 1014.0 |
| 20260502200416 | 59 | 352 | 5.2 | 6.1 | 0.00 | 0.00 | 0.00 | 83 | 1014.0 |
| 20260502195919 | 58 | 346 | 4.3 | 6.1 | 0.00 | 0.00 | 0.00 | 82 | 1014.0 |
| 20260502195417 | 58 | 354 | 5.2 | 7.8 | 0.00 | 0.00 | 0.00 | 81 | 1014.1 |
| 20260502194917 | 59 | 356 | 5.2 | 7.8 | 0.00 | 0.00 | 0.00 | 83 | 1014.1 |
| 20260502194417 | 58 | 359 | 5.2 | 6.1 | 0.00 | 0.00 | 0.00 | 82 | 1013.9 |
| 20260502193919 | 58 | 346 | 5.2 | 7.8 | 0.00 | 0.00 | 0.00 | 81 | 1014.0 |
| 20260502192915 | 59 | 352 | 5.2 | 7.8 | 0.00 | 0.00 | 0.00 | 80 | 1014.0 |
| 20260502192415 | 59 | 347 | 5.2 | 7.8 | 0.00 | 0.00 | 0.00 | 80 | 1013.9 |
| 20260502191918 | 60 | 333 | 5.2 | 6.1 | 0.00 | 0.00 | 0.00 | 80 | 1013.9 |
| 20260502191418 | 60 | 340 | 4.3 | 6.1 | 0.00 | 0.00 | 0.00 | 79 | 1013.9 |
| 20260502190416 | 61 | 340 | 5.2 | 8.7 | 0.00 | 0.00 | 0.00 | 79 | 1013.8 |
| 20260502185911 | 62 | 328 | 6.1 | 9.6 | 0.00 | 0.00 | 0.00 | 77 | 1013.8 |
| 20260502185415 | 62 | 323 | 7.8 | 10.4 | 0.00 | 0.00 | 0.00 | 76 | 1013.8 |
| 20260502184412 | 63 | 318 | 7.8 | 9.6 | 0.00 | 0.00 | 0.00 | 75 | 1013.7 |
| 20260502183915 | 64 | 312 | 5.2 | 6.1 | 0.00 | 0.00 | 0.00 | 74 | 1013.8 |
| 20260502183412 | 65 | 312 | 5.2 | 7.8 | 0.00 | 0.00 | 0.00 | 74 | 1013.8 |
| 20260502182414 | 65 | 315 | 7.8 | 9.6 | 0.00 | 0.00 | 0.00 | 72 | 1013.7 |
| 20260502181919 | 66 | 326 | 8.7 | 9.6 | 0.00 | 0.00 | 0.00 | 71 | 1013.7 |
| 20260502180411 | 69 | 309 | 5.2 | 5.2 | 0.00 | 0.00 | 0.00 | 68 | 1013.8 |
| 20260502170411 | 72 | 257 | 3.5 | 9.6 | 0.00 | 0.00 | 0.00 | 64 | 1014.1 |
| 20260502163910 | 72 | 239 | 7.0 | 9.6 | 0.00 | 0.00 | 0.00 | 61 | 1014.4 |
| 20260502163410 | 72 | 247 | 7.0 | 9.6 | 0.00 | 0.00 | 0.00 | 61 | 1014.5 |
| 20260502162908 | 73 | 240 | 5.2 | 8.7 | 0.00 | 0.00 | 0.00 | 62 | 1014.5 |
| 20260502162412 | 73 | 233 | 5.2 | 7.8 | 0.00 | 0.00 | 0.00 | 60 | 1014.5 |
| 20260502161909 | 73 | 237 | 5.2 | 9.6 | 0.00 | 0.00 | 0.00 | 62 | 1014.7 |
| 20260502161412 | 72 | 230 | 5.2 | 9.6 | 0.00 | 0.00 | 0.00 | 61 | 1014.6 |
| 20260502160908 | 72 | 254 | 5.2 | 8.7 | 0.00 | 0.00 | 0.00 | 62 | 1014.7 |
| 20260502160410 | 72 | 242 | 4.3 | 9.6 | 0.00 | 0.00 | 0.00 | 62 | 1014.7 |
| 20260502151903 | 73 | 284 | 4.3 | 10.4 | 0.00 | 0.00 | 0.00 | 61 | 1015.2 |
| 20260502151404 | 73 | 294 | 6.1 | 10.4 | 0.00 | 0.00 | 0.00 | 62 | 1015.2 |
| 20260502150855 | 72 | 227 | 7.8 | 10.4 | 0.00 | 0.00 | 0.00 | 60 | 1015.3 |
| 20260502150355 | 72 | 274 | 6.1 | 12.2 | 0.00 | 0.00 | 0.00 | 60 | 1015.3 |
| 20260502130337 | 75 | 249 | 7.8 | 19.1 | 0.00 | 0.00 | 0.00 | 52 | 1015.8 |
| 20260502123340 | 74 | 251 | 11.3 | 17.4 | 0.00 | 0.00 | 0.00 | 50 | 1016.0 |
| 20260502122838 | 74 | 215 | 10.4 | 18.2 | 0.00 | 0.00 | 0.00 | 49 | 1016.1 |
| 20260502122339 | 74 | 218 | 7.8 | 18.2 | 0.00 | 0.00 | 0.00 | 54 | 1016.1 |
| 20260502121840 | 73 | 185 | 10.4 | 16.5 | 0.00 | 0.00 | 0.00 | 49 | 1016.2 |
| 20260502121337 | 74 | 222 | 10.4 | 16.5 | 0.00 | 0.00 | 0.00 | 51 | 1016.2 |
| 20260502120837 | 75 | 232 | 10.4 | 14.8 | 0.00 | 0.00 | 0.00 | 53 | 1016.2 |
| 20260502120335 | 75 | 233 | 12.2 | 15.6 | 0.00 | 0.00 | 0.00 | 50 | 1016.3 |
| 20260502115837 | 74 | 237 | 11.3 | 15.6 | 0.00 | 0.00 | 0.00 | 52 | 1016.3 |
| 20260502114835 | 74 | 218 | 10.4 | 14.8 | 0.00 | 0.00 | 0.00 | 49 | 1016.4 |
| 20260502114335 | 74 | 205 | 11.3 | 14.8 | 0.00 | 0.00 | 0.00 | 51 | 1016.5 |
| 20260502113835 | 74 | 227 | 8.7 | 15.6 | 0.00 | 0.00 | 0.00 | 50 | 1016.5 |
| 20260502113334 | 74 | 199 | 10.4 | 15.6 | 0.00 | 0.00 | 0.00 | 47 | 1016.6 |
| 20260502112836 | 74 | 237 | 7.0 | 13.9 | 0.00 | 0.00 | 0.00 | 48 | 1016.7 |
| 20260502112328 | 74 | 202 | 7.8 | 12.2 | 0.00 | 0.00 | 0.00 | 52 | 1016.7 |
| 20260502111828 | 73 | 202 | 6.1 | 12.2 | 0.00 | 0.00 | 0.00 | 48 | 1016.6 |
| 20260502110330 | 73 | 192 | 7.8 | 14.8 | 0.00 | 0.00 | 0.00 | 51 | 1016.8 |
| 20260502105826 | 73 | 215 | 11.3 | 14.8 | 0.00 | 0.00 | 0.00 | 47 | 1016.8 |
| 20260502105329 | 73 | 211 | 9.6 | 17.4 | 0.00 | 0.00 | 0.00 | 49 | 1016.9 |
| 20260502104828 | 72 | 202 | 13.0 | 17.4 | 0.00 | 0.00 | 0.00 | 47 | 1016.9 |
| 20260502103829 | 73 | 201 | 11.3 | 15.6 | 0.00 | 0.00 | 0.00 | 47 | 1016.9 |
| 20260502103325 | 73 | 188 | 10.4 | 15.6 | 0.00 | 0.00 | 0.00 | 45 | 1016.9 |
| 20260502102827 | 72 | 187 | 7.8 | 11.3 | 0.00 | 0.00 | 0.00 | 46 | 1016.9 |
| 20260502102328 | 72 | 167 | 6.1 | 9.6 | 0.00 | 0.00 | 0.00 | 45 | 1017.0 |
| 20260502101825 | 72 | 156 | 7.0 | 9.6 | 0.00 | 0.00 | 0.00 | 49 | 1017.0 |
| 20260502101325 | 71 | 153 | 5.2 | 12.2 | 0.00 | 0.00 | 0.00 | 47 | 1017.0 |
| 20260502100824 | 71 | 208 | 7.8 | 12.2 | 0.00 | 0.00 | 0.00 | 44 | 1017.1 |
| 20260502100324 | 71 | 195 | 5.2 | 9.6 | 0.00 | 0.00 | 0.00 | 49 | 1017.2 |
| 20260502091322 | 69 | 208 | 7.8 | 11.3 | 0.00 | 0.00 | 0.00 | 47 | 1017.6 |
| 20260502090822 | 70 | 234 | 8.7 | 11.3 | 0.00 | 0.00 | 0.00 | 44 | 1017.4 |
| 20260502090322 | 70 | 209 | 7.0 | 9.6 | 0.00 | 0.00 | 0.00 | 50 | 1017.4 |
| 20260502071316 | 63 | 182 | 7.8 | 10.4 | 0.00 | 0.00 | 0.00 | 58 | 1017.9 |
| 20260502065817 | 62 | 177 | 7.8 | 9.6 | 0.00 | 0.00 | 0.00 | 57 | 1017.9 |
| 20260502065314 | 62 | 178 | 7.0 | 10.4 | 0.00 | 0.00 | 0.00 | 59 | 1018.0 |
| 20260502064816 | 61 | 172 | 7.8 | 11.3 | 0.00 | 0.00 | 0.00 | 57 | 1017.9 |
| 20260502063817 | 60 | 163 | 8.7 | 12.2 | 0.00 | 0.00 | 0.00 | 61 | 1018.0 |
| 20260502063316 | 60 | 172 | 7.8 | 11.3 | 0.00 | 0.00 | 0.00 | 61 | 1017.9 |
| 20260502062816 | 59 | 191 | 7.8 | 11.3 | 0.00 | 0.00 | 0.00 | 65 | 1018.1 |
| 20260502062314 | 59 | 189 | 7.8 | 11.3 | 0.00 | 0.00 | 0.00 | 65 | 1018.1 |
| 20260502061814 | 58 | 177 | 7.8 | 9.6 | 0.00 | 0.00 | 0.00 | 64 | 1018.0 |
| 20260502061313 | 58 | 178 | 6.1 | 8.7 | 0.00 | 0.00 | 0.00 | 67 | 1018.1 |
| 20260502060819 | 57 | 187 | 6.1 | 7.8 | 0.00 | 0.00 | 0.00 | 66 | 1018.1 |
| 20260502055815 | 56 | 164 | 5.2 | 6.1 | 0.00 | 0.00 | 0.00 | 67 | 1018.1 |
| 20260502055313 | 55 | 174 | 5.2 | 5.2 | 0.00 | 0.00 | 0.00 | 67 | 1018.1 |
| 20260502054814 | 55 | 179 | 3.5 | 4.3 | 0.00 | 0.00 | 0.00 | 69 | 1018.2 |
| 20260502054314 | 54 | 174 | 3.5 | 5.2 | 0.00 | 0.00 | 0.00 | 68 | 1018.2 |
| 20260502053815 | 54 | 163 | 3.5 | 5.2 | 0.00 | 0.00 | 0.00 | 69 | 1018.1 |
| 20260502052812 | 53 | 156 | 4.3 | 5.2 | 0.00 | 0.00 | 0.00 | 70 | 1018.1 |
| 20260502052313 | 52 | 157 | 4.3 | 5.2 | 0.00 | 0.00 | 0.00 | 71 | 1018.1 |
| 20260502051813 | 51 | 146 | 4.3 | 5.2 | 0.00 | 0.00 | 0.00 | 71 | 1018.1 |
| 20260502051312 | 51 | 146 | 4.3 | 5.2 | 0.00 | 0.00 | 0.00 | 72 | 1018.1 |
| 20260502050813 | 50 | 146 | 4.3 | 5.2 | 0.00 | 0.00 | 0.00 | 73 | 1018.2 |
| 20260502045814 | 47 | 140 | 5.2 | 5.2 | 0.00 | 0.00 | 0.00 | 76 | 1018.1 |
| 20260502045312 | 46 | 151 | 4.3 | 4.3 | 0.00 | 0.00 | 0.00 | 78 | 1018.2 |
| 20260502044813 | 46 | 147 | 3.5 | 4.3 | 0.00 | 0.00 | 0.00 | 79 | 1018.2 |
| 20260502044314 | 45 | 147 | 3.5 | 4.3 | 0.00 | 0.00 | 0.00 | 79 | 1018.2 |
| 20260502043814 | 45 | 147 | 2.6 | 4.3 | 0.00 | 0.00 | 0.00 | 79 | 1018.1 |
| 20260502043310 | 45 | 147 | 3.5 | 4.3 | 0.00 | 0.00 | 0.00 | 79 | 1018.3 |
| 20260502042811 | 44 | 147 | 3.5 | 4.3 | 0.00 | 0.00 | 0.00 | 79 | 1018.2 |
| 20260502042311 | 44 | 147 | 3.5 | 4.3 | 0.00 | 0.00 | 0.00 | 78 | 1018.2 |
| 20260502041312 | 44 | 147 | 2.6 | 5.2 | 0.00 | 0.00 | 0.00 | 79 | 1018.2 |
| 20260502040310 | 44 | 147 | 4.3 | 5.2 | 0.00 | 0.00 | 0.00 | 80 | 1018.3 |
| 20260502035810 | 44 | 147 | 3.5 | 5.2 | 0.00 | 0.00 | 0.00 | 81 | 1018.3 |
| 20260502035310 | 44 | 147 | 4.3 | 5.2 | 0.00 | 0.00 | 0.00 | 81 | 1018.3 |
| 20260502034810 | 44 | 147 | 4.3 | 4.3 | 0.00 | 0.00 | 0.00 | 81 | 1018.5 |
| 20260502034309 | 44 | 147 | 3.5 | 4.3 | 0.00 | 0.00 | 0.00 | 80 | 1018.4 |
| 20260502033813 | 44 | 147 | 3.5 | 4.3 | 0.00 | 0.00 | 0.00 | 80 | 1018.5 |
| 20260502033310 | 44 | 147 | 4.3 | 4.3 | 0.00 | 0.00 | 0.00 | 79 | 1018.5 |
| 20260502031809 | 45 | 150 | 3.5 | 4.3 | 0.00 | 0.00 | 0.00 | 77 | 1018.5 |
| 20260502031309 | 45 | 144 | 3.5 | 4.3 | 0.00 | 0.00 | 0.00 | 76 | 1018.5 |
| 20260502030807 | 46 | 146 | 4.3 | 4.3 | 0.00 | 0.00 | 0.00 | 76 | 1018.5 |
| 20260502030309 | 46 | 144 | 3.5 | 4.3 | 0.00 | 0.00 | 0.00 | 75 | 1018.6 |
| 20260502024810 | 47 | 140 | 4.3 | 5.2 | 0.00 | 0.00 | 0.00 | 73 | 1018.7 |
| 20260502023810 | 48 | 140 | 4.3 | 5.2 | 0.00 | 0.00 | 0.00 | 72 | 1018.7 |
| 20260502022307 | 49 | 140 | 5.2 | 6.1 | 0.00 | 0.00 | 0.00 | 70 | 1018.9 |
| 20260502021808 | 49 | 140 | 5.2 | 6.1 | 0.00 | 0.00 | 0.00 | 70 | 1018.9 |
| 20260502021307 | 49 | 140 | 4.3 | 5.2 | 0.00 | 0.00 | 0.00 | 70 | 1018.9 |
| 20260502020807 | 49 | 141 | 5.2 | 5.2 | 0.00 | 0.00 | 0.00 | 70 | 1019.0 |
| 20260502020308 | 50 | 140 | 5.2 | 6.1 | 0.00 | 0.00 | 0.00 | 70 | 1019.0 |
| 20260502015809 | 50 | 140 | 5.2 | 6.1 | 0.00 | 0.00 | 0.00 | 68 | 1019.0 |
| 20260502015253 | 50 | 140 | 5.2 | 5.2 | 0.00 | 0.00 | 0.00 | 68 | 1019.1 |
| 20260502014753 | 51 | 140 | 5.2 | 5.2 | 0.00 | 0.00 | 0.00 | 68 | 1019.2 |
| 20260502014252 | 51 | 140 | 5.2 | 5.2 | 0.00 | 0.00 | 0.00 | 69 | 1019.3 |
| 20260502013252 | 51 | 140 | 4.3 | 6.1 | 0.00 | 0.00 | 0.00 | 68 | 1019.3 |
| 20260502012753 | 51 | 144 | 4.3 | 6.1 | 0.00 | 0.00 | 0.00 | 68 | 1019.4 |
| 20260502012251 | 51 | 140 | 4.3 | 6.1 | 0.00 | 0.00 | 0.00 | 67 | 1019.3 |
| 20260502011752 | 51 | 140 | 4.3 | 5.2 | 0.00 | 0.00 | 0.00 | 67 | 1019.4 |
| 20260502011253 | 51 | 140 | 4.3 | 5.2 | 0.00 | 0.00 | 0.00 | 68 | 1019.5 |
| 20260502010751 | 51 | 140 | 4.3 | 5.2 | 0.00 | 0.00 | 0.00 | 68 | 1019.6 |
| 20260502010253 | 51 | 140 | 4.3 | 5.2 | 0.00 | 0.00 | 0.00 | 67 | 1019.6 |
| 20260502005751 | 52 | 140 | 4.3 | 5.2 | 0.00 | 0.00 | 0.00 | 68 | 1019.7 |
| 20260502005252 | 52 | 140 | 4.3 | 5.2 | 0.00 | 0.00 | 0.00 | 68 | 1019.7 |
| 20260502004752 | 51 | 140 | 3.5 | 5.2 | 0.00 | 0.00 | 0.00 | 69 | 1019.8 |
| 20260502004249 | 50 | 140 | 4.3 | 5.2 | 0.00 | 0.00 | 0.00 | 72 | 1019.9 |
| 20260502003751 | 49 | 140 | 4.3 | 5.2 | 0.00 | 0.00 | 0.00 | 73 | 1019.9 |
| 20260502003250 | 49 | 140 | 3.5 | 4.3 | 0.00 | 0.00 | 0.00 | 73 | 1020.0 |
| 20260502002248 | 50 | 140 | 3.5 | 4.3 | 0.00 | 0.00 | 0.00 | 70 | 1020.0 |
| 20260502000747 | 50 | 140 | 4.3 | 5.2 | 0.00 | 0.00 | 0.00 | 73 | 1020.2 |
| 20260501235741 | 49 | 140 | 3.5 | 4.3 | 0.00 | 0.00 | 0.00 | 74 | 1020.3 |
| 20260501235241 | 49 | 140 | 2.6 | 3.5 | 0.00 | 0.00 | 0.00 | 74 | 1020.3 |
| 20260501234244 | 50 | 140 | 2.6 | 3.5 | 0.00 | 0.00 | 0.00 | 74 | 1020.4 |
| 20260501231740 | 47 | 140 | 3.5 | 4.3 | 0.00 | 0.00 | 0.00 | 78 | 1020.4 |
| 20260501231239 | 48 | 140 | 3.5 | 3.5 | 0.00 | 0.00 | 0.00 | 77 | 1020.4 |
| 20260501230741 | 48 | 140 | 3.5 | 3.5 | 0.00 | 0.00 | 0.00 | 78 | 1020.4 |
| 20260501230240 | 48 | 140 | 1.7 | 2.6 | 0.00 | 0.00 | 0.00 | 79 | 1020.4 |
| 20260501225740 | 48 | 140 | 1.7 | 2.6 | 0.00 | 0.00 | 0.00 | 79 | 1020.5 |
| 20260501225238 | 48 | 140 | 1.7 | 3.5 | 0.00 | 0.00 | 0.00 | 79 | 1020.6 |
| 20260501224736 | 48 | 140 | 2.6 | 3.5 | 0.00 | 0.00 | 0.00 | 78 | 1020.5 |
| 20260501224237 | 48 | 140 | 2.6 | 3.5 | 0.00 | 0.00 | 0.00 | 78 | 1020.5 |
| 20260501223737 | 48 | 140 | 2.6 | 3.5 | 0.00 | 0.00 | 0.00 | 77 | 1020.6 |
| 20260501223239 | 49 | 140 | 3.5 | 4.3 | 0.00 | 0.00 | 0.00 | 77 | 1020.6 |
| 20260501222737 | 49 | 140 | 3.5 | 4.3 | 0.00 | 0.00 | 0.00 | 76 | 1020.6 |
| 20260501222237 | 49 | 140 | 3.5 | 4.3 | 0.00 | 0.00 | 0.00 | 76 | 1020.7 |
| 20260501221238 | 49 | 140 | 3.5 | 4.3 | 0.00 | 0.00 | 0.00 | 75 | 1020.7 |
| 20260501220737 | 49 | 140 | 3.5 | 4.3 | 0.00 | 0.00 | 0.00 | 76 | 1020.7 |
| 20260501220239 | 49 | 148 | 3.5 | 3.5 | 0.00 | 0.00 | 0.00 | 76 | 1020.9 |
| 20260501215737 | 49 | 148 | 3.5 | 3.5 | 0.00 | 0.00 | 0.00 | 76 | 1020.9 |
| 20260501215235 | 49 | 150 | 2.6 | 2.6 | 0.00 | 0.00 | 0.00 | 76 | 1021.0 |
| 20260501214737 | 50 | 150 | 1.7 | 2.6 | 0.00 | 0.00 | 0.00 | 75 | 1020.9 |